Regional Weather Roundup
Issued by NWS

Home | Current Version | Previous Version | Graphics & Text | Print | Product List | Glossary On
Versions: 1 2 3 4 5 6 7 8 9 10 11 12 13 14 15 16 17 18 19 20 21 22 23 24 25 26 27 28 29 30 31 32 33 34 35 36 37 38 39 40 41 42 43 44 45 46 47 48 49 50
239
ASUS45 KBOU 101307
RWRCO

WEATHER ROUNDUP FOR COLORADO
NATIONAL WEATHER SERVICE DENVER/BOULDER CO
600 AM MST SAT DEC 10 2016

NOTE: "FAIR" INDICATES FEW OR NO CLOUDS BELOW 12000 FEET WITH NO
SIGNIFICANT WEATHER AND/OR OBSTRUCTIONS TO VISIBILITY.

COZ001>005-013-030-031-101400-
...NORTHWEST COLORADO...

CITY           SKY/WX    TMP DP  RH WIND       PRES   REMARKS
CRAIG          FAIR      26  22  84 E3        30.03F
HAYDEN         MOCLDY    25  19  80 N5        30.03F WCI  19
MEEKER         FAIR      39  25  57 SW18      30.05F
MOUNT WERNER   NOT AVBL
STEAMBOAT SPGS MOCLDY    22  21  96 E3        30.02F
WALDEN           N/A     32  19  59 S7G17     30.02S WCI  26
$$

COZ006>008-011-101400-
...WEST CENTRAL VALLEYS...

CITY           SKY/WX    TMP DP  RH WIND       PRES   REMARKS
GRAND JUNCTION FAIR      21  18  88 CALM      30.16F
MONTROSE       FAIR      23  21  92 SW3       30.18S
EAGLE          FAIR      18  16  92 CALM      30.13F
RIFLE          FAIR      22  19  89 CALM      30.16F
DELTA          FAIR      26  20  78 CALM      30.17F
NUCLA          FAIR      27  21  80 SE5       30.22S WCI  21
$$

COZ017>023-064>068-101400-
...SOUTHWEST COLORADO...

CITY           SKY/WX    TMP DP  RH WIND       PRES   REMARKS
DURANGO        FAIR      18  13  80 NE6       30.24F WCI  10
CORTEZ         FAIR      21  19  92 E3        30.22S
PAGOSA SPRINGS FAIR      18  17  96 CALM      30.27S
TELLURIDE      NOT AVBL
WOLF CREEK PAS FAIR      18  18 100 SW21G28   30.30F WCI   1
$$

COZ009-010-012-014-032>034-037-058>063-101400-
...CENTRAL COLORADO...

CITY           SKY/WX    TMP DP  RH WIND       PRES   REMARKS
ASPEN          CLOUDY    26  22  84 SE5       30.10F WCI  20
BUENA VISTA    FAIR      40  14  34 NW21G33   30.07F
COPPER MTN     LGT SNOW  28  14  54 W40G46    30.12S VSB 3/4 WCI  11
BERTHOUD PASS  LGT SNOW  21   9  58 W24G46    30.09S WCI   4
COTTONWOOD PAS FAIR      37  12  35 W28G49    30.07F
GUNNISON       FLURRIES   8   5  87 NE5       30.25S WCI   0
KREMMLING      MOCLDY    43  25  49 W17G25    30.03F
LEADVILLE      FAIR      27  14  58 E6        30.10F WCI  20
MONARCH PASS   FAIR      21  14  73 W37       30.29F WCI   1
SALIDA         FAIR      41  17  37 SW10G21   30.15F
SUNLIGHT       FAIR      23  19  86 SW21G36   30.15F WCI   8
WILKERSON PASS FAIR      28  12  50 W10G20    30.12R WCI  19
$$

COZ069>075-101400-
...SAN LUIS VALLEY/SANGRE DE CRISTO MOUNTAINS...

CITY           SKY/WX    TMP DP  RH WIND       PRES   REMARKS
ALAMOSA        FAIR       5   1  83 W3        30.20F
LA VETA PASS   FAIR      27  19  74 NE28G51   30.11R WCI  11
SAGUACHE       FAIR      19  14  79 CALM      30.21S
$$

COZ035-036-038>040-101400-
...NORTHERN COLORADO FRONT RANGE...

CITY           SKY/WX    TMP DP  RH WIND       PRES   REMARKS
DENVER INTL AP FAIR      18  14  84 W6        29.94F FOG     WCI  10
DMNS CITY PARK   N/A     20  18  93 SW3G13    29.94F
AURORA         PTCLDY    19  18  97 CALM      29.95S
FRONT RANGE AP NOT AVBL
ERIE MUNI ARPT FAIR      16  15  95 S5        29.95F FOG     WCI   9
BOULDER MUN AP FAIR      21  19  93 S3        29.93F
CENTENNIAL     FAIR      24  19  81 W5        29.94S WCI  18
BROOMFIELD     NOT AVBL
FORT COLLINS   FAIR      12  10  92 CALM      29.96S
LONGMONT       FAIR      15  11  86 NW7       29.97F WCI   5
$$

COZ041-046-047-076>085-087-088-101400-
...PIKES PEAK/PALMER DIVIDE AND SOUTHERN FOOTHILLS...

CITY           SKY/WX    TMP DP  RH WIND       PRES   REMARKS
COLO. SPRINGS  MOCLDY    30  18  60 E10       30.00S WCI  21
A. F. ACADEMY  FAIR      22  16  76 N6        29.98F WCI  15
SCHRIEVER AFB  NOT AVBL
ELLICOTT       FAIR     N/A N/A N/A CALM      29.98F
FALCON         FAIR      30  16  57 W5        30.00S WCI  25
FORT CARSON    FAIR      25  17  73 N9        29.97F WCI  15
LIMON          FAIR      13  10  88 CALM      29.97F
MONUMENT HILL  FAIR      30  18  59 S9        29.99S WCI  22
TRINIDAD       FAIR      36  17  46 W13       30.03S
$$

COZ042>045-048>051-090-091-101400-
...NORTHEAST COLORADO...

CITY           SKY/WX    TMP DP  RH WIND       PRES   REMARKS
GREELEY ARPT   FAIR      10   7  87 CALM      29.98F
AKRON          FAIR      15  12  88 SW5       29.96F WCI   8
BURLINGTON     FAIR      21  16  81 CALM      30.01S
WRAY           NOT AVBL
STERLING       FAIR      16  14  93 CALM      29.98R
HOLYOKE        FAIR      19  16  86 SE8       30.01F WCI   9
FORT MORGAN    FAIR      12  10  91 W3        29.97F
$$

COZ086-089-092>099-101400-
...SOUTHEAST COLORADO...

CITY           SKY/WX    TMP DP  RH WIND       PRES   REMARKS
PUEBLO         FAIR      14   9  80 W8        30.01F WCI   3
LA JUNTA       FAIR      17  11  77 W3        30.02F
LAMAR          FAIR      13   9  84 CALM      30.03F
SPRINGFIELD      N/A     21  18  88 W8        30.01F WCI  11
$$




USA.gov is the U.S. government's official web portal to all federal, state and local government web resources and services.